Flag for U.S.A. Weather past 2 weeks in Simi Valley, California, U.S.A.

Now
69 °F

Sunny.


Feels Like: 69 °F
Forecast: 55 / 73 °F
Wind: 7 mph from North

Location: Van Nuys Airport

Current Time: Jan 28, 2015 at 4:49:59 PM

Latest Report: Jan 28, 2015 at 3:51 PM


Visibility: 10 mi

Pressure: 30.06 "Hg

Humidity: 49%

Dew point: 49 °F

Location of Simi ValleyLocation

Historic Weather in Simi Valley — Graph

°F

Simi Valley temperature yesterday

Maximum temperature yesterday: 70 °F (at 2:51 PM)
Minimum temperature yesterday: 54 °F (at 2:51 AM)
Average temperature yesterday: 60 °F

Past Weeks' High & Low Weather Summary

 TemperatureHumidityPressure
High80 °F (Jan 25, 12:51 PM)97% (Jan 21, 9:51 AM)30.27 "Hg (Jan 21, 9:51 AM)
Low43 °F (Jan 15, 6:51 AM)11% (Jan 23, 11:51 AM)29.90 "Hg (Jan 20, 1:51 PM)
Average61 °F46%30.10 "Hg
* Reported Jan 13 3:51 PM — Jan 28 3:51 PM, Simi Valley, Weather by CustomWeather, © 2014

Note: Actual official high and low records may vary slightly from our data, if they occured in-between our weather recording intervals... More about our weather records

Advertising

Simi Valley weather history for previous 24 hours

 ConditionsComfort  
Time TempWeatherWind HumidityBarometerVisibility
3:51 PM
Jan 28
69 °FSunny.7 mph49%30.06 "Hg10 mi
2:51 PM70 °FSunny.8 mph46%30.07 "Hg10 mi
1:51 PM71 °FSunny.9 mph44%30.06 "Hg10 mi
12:51 PM72 °FSunny.9 mph40%30.07 "Hg10 mi
11:51 AM71 °FSunny.10 mph42%30.09 "Hg10 mi
10:51 AM69 °FSunny.15 mph47%30.12 "Hg10 mi
9:51 AM65 °FPartly sunny.10 mph54%30.14 "Hg10 mi
8:51 AM62 °FSunny.6 mph60%30.15 "Hg10 mi
7:51 AM56 °FSunny.3 mph72%30.15 "Hg10 mi
6:51 AM53 °FClear.5 mph77%30.14 "Hg10 mi
5:51 AM53 °FClear.5 mph80%30.13 "Hg10 mi
4:51 AM53 °FClear.No wind80%30.13 "Hg10 mi
3:51 AM53 °FClear.No wind80%30.14 "Hg10 mi
2:51 AM52 °FClear.No wind80%30.17 "Hg10 mi
1:51 AM54 °FClear.No wind77%30.17 "Hg10 mi
12:51 AM54 °FClear.No wind77%30.16 "Hg10 mi
11:51 PM
Jan 27
56 °FClear.No wind72%30.16 "Hg10 mi
10:51 PM56 °FClear.3 mph72%30.15 "Hg10 mi
9:51 PM58 °FClear.3 mph67%30.16 "Hg10 mi
8:51 PM58 °FClear.No wind70%30.16 "Hg10 mi
7:51 PM60 °FClear.3 mph65%30.17 "Hg10 mi
6:51 PM62 °FClear.5 mph62%30.16 "Hg10 mi
5:51 PM65 °FClear.3 mph52%30.14 "Hg10 mi
4:51 PM67 °FScattered clouds.5 mph42%30.13 "Hg10 mi
Weather by CustomWeather, © 2014

See weather overviewHow to use our weather pages